Regional Weather Roundup
Issued by NWS

Home | Current Version | Previous Version | Graphics & Text | Print | Product List | Glossary Off
Versions: 1 2 3 4 5 6 7 8 9 10 11 12 13 14 15 16 17 18 19 20 21 22 23 24 25 26 27 28 29 30 31 32 33 34 35 36 37 38 39 40 41 42 43 44 45 46 47 48 49 50

000
ASUS43 KTOP 021308
RWRKS

WEATHER ROUNDUP FOR KANSAS
NATIONAL WEATHER SERVICE GOODLAND KS
800 AM CDT SUN AUG 02 2015

NOTE:  "FAIR" INDICATES FEW OR NO CLOUDS BELOW 12,000 FEET WITH NO
SIGNIFICANT WEATHER AND/OR OBSTRUCTIONS TO VISIBILITY.

KSZ001>006-013>018-027>032-041>047-021400-
NORTHWEST KANSAS

CITY           SKY/WX    TMP DP  RH WIND       PRES   REMARKS
GOODLAND       PTSUNNY   68  66  93 S6        30.01R
HAYS           SUNNY     72  63  73 S5        29.95S
HILL CITY      SUNNY     72  68  87 SW5       29.95S
RUSSELL        SUNNY     73  69  87 S9        29.93S
$$

KSZ061>065-074>080-084>089-021400-
SOUTHWEST KANSAS

CITY           SKY/WX    TMP DP  RH WIND       PRES   REMARKS
DODGE CITY     SUNNY     69  67  93 S5        29.98R
ELKHART          N/A     71  61  71 SW8         N/A
GARDEN CITY    MOSUNNY   69  67  93 S6        29.98S
GREAT BEND     SUNNY     72  66  83 S10       29.95S
LIBERAL        MOSUNNY   70  59  68 CALM      29.97R
PRATT          MOSUNNY   72  68  88 S5        29.98S
$$

KSZ066>073-081>083-090>101-021400-
SOUTHEAST KANSAS

CITY           SKY/WX    TMP DP  RH WIND       PRES   REMARKS
CHANUTE        SUNNY     72  66  81 SW3       29.97R
COFFEYVILLE    SUNNY     73  69  87 S3        29.97R
HUTCHINSON     SUNNY     73  69  87 S6        29.97R
MEDICINE LODGE   N/A     73  69  87 VRB3      29.97R
NEWTON         MOSUNNY   72  64  78 S8        29.99S
PARSONS        SUNNY     72  69  90 CALM      29.98S
WICHITA INTL   MOSUNNY   74  68  81 S6        29.96R
WICHITA JABRA  SUNNY     75  67  76 S8        29.97R
WICHITA MCCONL SUNNY     74  66  75 S6        29.97R
WINFIELD       SUNNY     74  69  85 S3        29.98R
$$

KSZ007>012-019>026-033>040-048>060-102>105-021400-
NORTHEAST KANSAS

CITY           SKY/WX    TMP DP  RH WIND       PRES   REMARKS
CONCORDIA      MOSUNNY   75  70  84 SW9       29.92R
EMPORIA        SUNNY     73  67  81 S9        29.96R
LAWRENCE       MOSUNNY   75  70  84 E3        29.93S
MANHATTAN      SUNNY     75  70  84 SW6       29.92R
MARYSVILLE     SUNNY     75  72  88 SW8       29.92S
OLATHE IND     MOSUNNY   75  67  76 S9        29.96R
OLATHE EXE     MOSUNNY   74  68  81 SW5       29.95R
SALINA         MOSUNNY   77  70  79 S10       29.93S
TOPEKA BILLARD SUNNY     77  68  73 SW5       29.92S
TOPEKA FORBES  SUNNY     76  67  73 SW9       29.93S
$$



USA.gov is the U.S. government's official web portal to all federal, state and local government web resources and services.